Location: ??
(34.9170°N, 135.5016°E)
Time: 11:53:23
(UTC+00:00)

CZ-4B R/B - Pass Details

Date: 29 October 2020
Orbit: 388 x 462 km, 97.6° (Epoch: 26 November)

Event Time Altitude Azimuth Distance (km) Brightness Sun altitude
Rises 19:48:09 0° 168° (SSE) 2,479 5.4 -18.7°
Reaches altitude 10° 19:50:11 10° 169° (S) 1,607 4.4 -18.3°
Maximum altitude 19:53:39 85° 257° (WSW) 468 1.3 -17.6°
Drops below altitude 10° 19:57:06 10° 347° (NNW) 1,605 4.0 -16.9°
Enters shadow 19:57:42 - 347° (NNW) 1,858 4.3 -16.8°
